Flag for Australia Weather past 2 weeks in Sydney, New South Wales, Australia

75 °F

Passing clouds.

Feels Like: 78 °F
Forecast: 59 / 77 °F
Wind: 17 mph from Northeast

Location: Sydney Airport

Current Time: Oct 14, 2015 at 2:24:36 PM

Latest Report: Oct 14, 2015 at 2:00 PM

Visibility: N/A

Pressure: 30.27 "Hg

Humidity: 50%

Dew point: 55 °F

Location of SydneyLocation

Historic Weather in Sydney — Graph


Sydney temperature yesterday

Maximum temperature yesterday: 68 °F (at 12:00 AM)
Minimum temperature yesterday: 64 °F (at 5:30 AM)
Average temperature yesterday: 66 °F

Past Weeks' High & Low Weather Summary

High99 °F (Oct 5, 2:30 PM)100% (Oct 1, 9:00 PM)30.66 "Hg (Oct 1, 9:00 PM)
Low59 °F (Oct 3, 3:30 AM)8% (Oct 5, 2:30 PM)29.86 "Hg (Oct 12, 4:30 PM)
Average70 °F60%30.26 "Hg
* Reported Sep 29 12:00 Noon — Oct 14 1:00 PM, Sydney, Weather by CustomWeather, © 2015

Note: Actual official high and low records may vary slightly from our data, if they occured in-between our weather recording intervals... More about our weather records


Sydney weather history for previous 24 hours

Time TempWeatherWind HumidityBarometerVisibility
1:00 PM
Wed, Oct 14
77 °FPassing clouds.17 mph47%30.30 "HgN/A
12:30 PM73 °FPassing clouds.15 mph53%30.30 "HgN/A
12:00 PM72 °FBroken clouds.15 mph61%30.30 "HgN/A
11:30 AM72 °FBroken clouds.12 mph61%30.33 "HgN/A
11:00 AM72 °FSprinkles. Partly sunny.12 mph61%30.33 "HgN/A
10:30 AM70 °FSprinkles. Partly sunny.9 mph69%30.33 "HgN/A
10:00 AM72 °FScattered showers. Partly sunny.7 mph65%30.33 "HgN/A
8:30 AM68 °FScattered showers. Passing clouds.7 mph78%30.30 "HgN/A
8:00 AM66 °FPassing clouds.5 mph78%30.30 "HgN/A
7:30 AM66 °FPassing clouds.6 mph83%30.27 "HgN/A
7:00 AM66 °FPassing clouds.6 mph83%30.27 "HgN/A
6:00 AM64 °FSprinkles. Passing clouds.3 mph88%30.27 "HgN/A
5:30 AM63 °FSprinkles. Partly cloudy.6 mph94%30.27 "HgN/A
5:00 AM63 °FScattered showers. Partly cloudy.7 mph88%30.27 "HgN/A
4:30 AM63 °FPassing clouds.No wind88%30.27 "HgN/A
4:00 AM64 °FPassing clouds.2 mph83%30.27 "HgN/A
3:30 AM63 °FPassing clouds.3 mph88%30.24 "HgN/A
3:00 AM64 °FPassing clouds.6 mph83%30.27 "HgN/A
2:30 AM64 °FPassing clouds.7 mph83%30.27 "HgN/A
2:00 AM64 °FPassing clouds.6 mph83%30.27 "HgN/A
1:30 AM64 °FPassing clouds.6 mph88%30.27 "HgN/A
1:00 AM64 °FPassing clouds.7 mph88%30.27 "HgN/A
12:30 AM64 °FPartly cloudy.8 mph88%30.27 "HgN/A
12:00 AM66 °FPartly cloudy.7 mph78%30.27 "HgN/A
11:30 PM
Tue, Oct 13
66 °FPartly cloudy.9 mph78%30.27 "HgN/A
11:00 PM66 °FPartly cloudy.12 mph78%30.27 "HgN/A
10:30 PM66 °FPassing clouds.12 mph78%30.27 "HgN/A
10:00 PM66 °FPartly cloudy.13 mph78%30.27 "HgN/A
9:30 PM66 °FScattered showers. Partly cloudy.15 mph78%30.27 "HgN/A
9:00 PM66 °FScattered showers. Partly cloudy.15 mph78%30.27 "HgN/A
8:30 PM66 °FScattered showers. Partly cloudy.15 mph78%30.24 "HgN/A
8:00 PM66 °FScattered showers. Partly cloudy.16 mph78%30.24 "HgN/A
7:30 PM66 °FSprinkles. Partly cloudy.15 mph78%30.24 "HgN/A
7:00 PM66 °FSprinkles. Broken clouds.16 mph78%30.21 "Hg6 mi
6:30 PM68 °FScattered showers. Broken clouds.15 mph73%30.21 "HgN/A
6:00 PM68 °FScattered showers. Broken clouds.15 mph73%30.18 "HgN/A
5:30 PM68 °FDrizzle. Broken clouds.16 mph78%30.18 "HgN/A
5:00 PM68 °FBroken clouds.16 mph78%30.18 "HgN/A
4:30 PM68 °FScattered showers. Broken clouds.14 mph78%30.18 "HgN/A
4:00 PM68 °FDrizzle. Partly sunny.13 mph78%30.18 "HgN/A
3:30 PM66 °FDrizzle. Partly sunny.12 mph83%30.18 "HgN/A
3:00 PM66 °FSprinkles. Partly sunny.13 mph83%30.18 "HgN/A
2:00 PM68 °FSprinkles. Partly sunny.15 mph78%30.18 "HgN/A
Weather by CustomWeather, © 2015

See weather overviewHow to use our weather pages